Powrót do katalogu

YUNYAO-1 21

AktywnyPogodaSSO
NORAD 61241·PAYLOAD·🇨🇳 China
Ta nazwa satelity nie została jeszcze potwierdzona przez oficjalne źródła.

Wystrzelony Sep 24, 2024 z Jiuquan Satellite Launch Center

Loading…

Następne Przeloty (najbliższe 24 godziny)

TLE

ŚwieżeSource: Space-Track

Epoka: Sep 14, 2026, 19:38 UTC

1 61241U 24174D   26257.81872637  .00006296  00000-0  21396-3 0  9993
2 61241  97.4387 269.4053 0009539 271.8626  88.1522 15.30788192109629

Śledź YUNYAO-1 21 w czasie rzeczywistym z AllMySat

Download on the App Store